• In Latvia
  • List of Countries
  • For 7 days
  • Water Temperature
  • Satellite Maps
  • Weather Map
  • Weather Widgets
  • user-avatar
    Login

    Hourly Weather Chios

    Today, 24 October, Tuesday

    Time Temperature Precipitation Wind Pressure Humidity
    00:00 +19°C° 1 mm 12 mps 748 mmHg 79%
    01:00 +19°C° 1 mm 12 mps 747 mmHg 79%
    02:00 +19°C° 1 mm 12 mps 747 mmHg 80%
    03:00 +19°C° 1 mm 11 mps 747 mmHg 80%
    04:00 +19°C° 1 mm 11 mps 747 mmHg 79%
    05:00 +19°C° 1 mm 10 mps 746 mmHg 79%
    06:00 +19°C° 0.8 mm 10 mps 747 mmHg 77%
    07:00 +19°C° 0.8 mm 9 mps 747 mmHg 76%
    08:00 +20°C° 0.8 mm 8 mps 747 mmHg 75%
    09:00 +20°C° 0.2 mm 8 mps 747 mmHg 71%
    10:00 +21°C° 0.2 mm 7 mps 747 mmHg 67%
    11:00 +21°C° 0.2 mm 7 mps 748 mmHg 63%
    12:00 +22°C° 0.1 mm 7 mps 748 mmHg 62%
    13:00 +22°C° 0.1 mm 6 mps 748 mmHg 60%
    14:00 +22°C° 0.1 mm 6 mps 748 mmHg 59%
    15:00 +21°C° 0 mm 5 mps 748 mmHg 62%
    16:00 +20°C° 0 mm 5 mps 748 mmHg 64%
    17:00 +20°C° 0 mm 4 mps 748 mmHg 67%
    18:00 +20°C° 0.1 mm 5 mps 749 mmHg 69%
    19:00 +19°C° 0.1 mm 5 mps 749 mmHg 72%
    20:00 +19°C° 0.1 mm 5 mps 750 mmHg 74%
    21:00 +19°C° 0.3 mm 5 mps 750 mmHg 75%
    22:00 +19°C° 0.3 mm 5 mps 751 mmHg 75%
    23:00 +19°C° 0.3 mm 6 mps 751 mmHg 76%

    Tomorrow, 25 October, Wednesday

    Time Temperature Precipitation Wind Pressure Humidity
    00:00 +17°C° 0.7 mm 5 mps 751 mmHg 76%
    01:00 +17°C° 0.7 mm 5 mps 751 mmHg 76%
    02:00 +17°C° 0.7 mm 5 mps 752 mmHg 76%
    03:00 +17°C° 0.1 mm 5 mps 752 mmHg 76%
    04:00 +18°C° 0.1 mm 4 mps 752 mmHg 77%
    05:00 +18°C° 0.1 mm 4 mps 752 mmHg 78%
    06:00 +18°C° 0.1 mm 4 mps 753 mmHg 76%
    07:00 +18°C° 0.1 mm 4 mps 753 mmHg 75%
    08:00 +18°C° 0.1 mm 4 mps 754 mmHg 74%
    09:00 +19°C° 0.7 mm 3 mps 754 mmHg 71%
    10:00 +20°C° 0.7 mm 3 mps 755 mmHg 67%
    11:00 +20°C° 0.7 mm 2 mps 755 mmHg 64%
    12:00 +20°C° 0.7 mm 2 mps 755 mmHg 62%
    13:00 +21°C° 0.7 mm 2 mps 755 mmHg 61%
    14:00 +21°C° 0.7 mm 2 mps 755 mmHg 60%
    15:00 +20°C° 0.3 mm 3 mps 756 mmHg 63%
    16:00 +20°C° 0.3 mm 4 mps 756 mmHg 65%
    17:00 +19°C° 0.3 mm 5 mps 756 mmHg 68%
    18:00 +19°C° 0.2 mm 5 mps 757 mmHg 71%
    19:00 +19°C° 0.2 mm 5 mps 757 mmHg 73%
    20:00 +19°C° 0.2 mm 5 mps 758 mmHg 76%
    21:00 +17°C° 0.2 mm 5 mps 758 mmHg 78%
    22:00 +17°C° 0.2 mm 5 mps 759 mmHg 79%
    23:00 +17°C° 0.2 mm 5 mps 759 mmHg 81%

    Day after tomorrow, 26 October, Thursday

    Time Temperature Precipitation Wind Pressure Humidity
    00:00 +16°C° 0.1 mm 6 mps 760 mmHg 82%
    01:00 +16°C° 0.1 mm 6 mps 760 mmHg 83%
    02:00 +16°C° 0.1 mm 6 mps 760 mmHg 84%
    03:00 +16°C° 0 mm 6 mps 760 mmHg 84%
    04:00 +16°C° 0 mm 6 mps 760 mmHg 84%
    05:00 +15°C° 0 mm 6 mps 760 mmHg 84%
    06:00 +16°C° 0 mm 6 mps 761 mmHg 82%
    07:00 +16°C° 0 mm 6 mps 761 mmHg 80%
    08:00 +16°C° 0 mm 6 mps 762 mmHg 78%
    09:00 +17°C° 0 mm 7 mps 762 mmHg 76%
    10:00 +17°C° 0 mm 7 mps 762 mmHg 73%
    11:00 +17°C° 0 mm 7 mps 763 mmHg 70%
    12:00 +18°C° 0 mm 7 mps 762 mmHg 69%
    13:00 +18°C° 0 mm 7 mps 762 mmHg 67%
    14:00 +18°C° 0 mm 7 mps 762 mmHg 66%
    15:00 +18°C° 0 mm 7 mps 762 mmHg 67%
    16:00 +18°C° 0 mm 7 mps 762 mmHg 68%
    17:00 +17°C° 0 mm 7 mps 761 mmHg 69%
    18:00 +17°C° 0 mm 7 mps 761 mmHg 71%
    19:00 +16°C° 0 mm 7 mps 762 mmHg 73%
    20:00 +16°C° 0 mm 7 mps 762 mmHg 75%
    21:00 +16°C° 0 mm 7 mps 761 mmHg 76%
    22:00 +16°C° 0 mm 7 mps 761 mmHg 78%
    23:00 +15°C° 0 mm 7 mps 761 mmHg 79%

    27 October, Friday

    Time Temperature Precipitation Wind Pressure Humidity
    00:00 +15°C° 0 mm 7 mps 761 mmHg 79%
    01:00 +15°C° 0 mm 7 mps 761 mmHg 80%
    02:00 +15°C° 0 mm 7 mps 761 mmHg 80%
    03:00 +15°C° 0 mm 7 mps 760 mmHg 81%
    04:00 +15°C° 0 mm 7 mps 760 mmHg 82%
    05:00 +15°C° 0 mm 7 mps 760 mmHg 82%
    06:00 +15°C° 0 mm 6 mps 760 mmHg 81%
    07:00 +15°C° 0 mm 6 mps 760 mmHg 80%
    08:00 +15°C° 0 mm 6 mps 760 mmHg 79%
    09:00 +16°C° 0 mm 6 mps 759 mmHg 76%
    10:00 +16°C° 0 mm 5 mps 759 mmHg 73%
    11:00 +17°C° 0 mm 5 mps 759 mmHg 69%
    12:00 +17°C° 0 mm 5 mps 758 mmHg 67%
    13:00 +19°C° 0 mm 5 mps 758 mmHg 65%
    14:00 +19°C° 0 mm 5 mps 757 mmHg 62%
    15:00 +19°C° 0 mm 5 mps 757 mmHg 64%
    16:00 +19°C° 0 mm 5 mps 756 mmHg 65%
    17:00 +19°C° 0 mm 5 mps 756 mmHg 67%
    18:00 +17°C° 0 mm 5 mps 756 mmHg 70%
    19:00 +18°C° 0 mm 4 mps 756 mmHg 73%
    20:00 +18°C° 0 mm 4 mps 756 mmHg 76%
    21:00 +18°C° 0 mm 4 mps 755 mmHg 76%
    22:00 +17°C° 0 mm 4 mps 755 mmHg 77%
    23:00 +17°C° 0 mm 3 mps 755 mmHg 77%

    28 October, Saturday

    Time Temperature Precipitation Wind Pressure Humidity
    00:00 +17°C° 0 mm 3 mps 754 mmHg 78%
    01:00 +17°C° 0 mm 2 mps 754 mmHg 79%
    02:00 +16°C° 0 mm 1 mps 754 mmHg 80%
    03:00 +16°C° 0 mm 1 mps 753 mmHg 81%
    04:00 +16°C° 0 mm 1 mps 753 mmHg 82%
    05:00 +16°C° 0 mm 1 mps 752 mmHg 83%
    06:00 +16°C° 0 mm 1 mps 752 mmHg 80%
    07:00 +18°C° 0 mm 1 mps 752 mmHg 78%
    08:00 +18°C° 0 mm 1 mps 752 mmHg 75%
    09:00 +18°C° 0 mm 2 mps 752 mmHg 70%
    10:00 +19°C° 0 mm 2 mps 752 mmHg 65%
    11:00 +20°C° 0 mm 3 mps 752 mmHg 60%
    12:00 +20°C° 0 mm 3 mps 752 mmHg 59%
    13:00 +21°C° 0 mm 3 mps 752 mmHg 58%
    14:00 +21°C° 0 mm 3 mps 751 mmHg 57%
    15:00 +20°C° 0 mm 2 mps 751 mmHg 60%
    16:00 +20°C° 0 mm 2 mps 751 mmHg 63%
    17:00 +19°C° 0 mm 2 mps 751 mmHg 66%
    18:00 +19°C° 0 mm 2 mps 751 mmHg 68%
    19:00 +19°C° 0 mm 3 mps 751 mmHg 70%
    20:00 +19°C° 0 mm 3 mps 752 mmHg 72%
    21:00 +18°C° 0 mm 3 mps 751 mmHg 73%
    22:00 +18°C° 0 mm 3 mps 751 mmHg 74%
    23:00 +18°C° 0 mm 3 mps 751 mmHg 76%

    29 October, Sunday

    Time Temperature Precipitation Wind Pressure Humidity
    00:00 +18°C° 0 mm 4 mps 751 mmHg 78%
    01:00 +19°C° 0 mm 4 mps 751 mmHg 81%
    02:00 +19°C° 0 mm 4 mps 751 mmHg 84%
    03:00 +19°C° 0 mm 5 mps 750 mmHg 85%
    04:00 +19°C° 0 mm 5 mps 750 mmHg 87%
    05:00 +19°C° 0 mm 5 mps 750 mmHg 88%
    06:00 +18°C° 0.2 mm 7 mps 750 mmHg 87%
    07:00 +18°C° 0.2 mm 8 mps 750 mmHg 85%
    08:00 +19°C° 0.2 mm 9 mps 750 mmHg 84%
    09:00 +19°C° 0.6 mm 10 mps 750 mmHg 84%
    10:00 +19°C° 0.6 mm 10 mps 749 mmHg 84%
    11:00 +19°C° 0.6 mm 11 mps 749 mmHg 84%
    12:00 +19°C° 0.4 mm 11 mps 749 mmHg 82%
    13:00 +19°C° 0.4 mm 11 mps 748 mmHg 81%
    14:00 +21°C° 0.4 mm 12 mps 748 mmHg 80%
    15:00 +21°C° 0.3 mm 12 mps 747 mmHg 81%
    16:00 +21°C° 0.3 mm 12 mps 747 mmHg 82%
    17:00 +21°C° 0.3 mm 12 mps 747 mmHg 82%
    18:00 +21°C° 0.2 mm 12 mps 747 mmHg 83%
    19:00 +21°C° 0.2 mm 12 mps 747 mmHg 84%
    20:00 +21°C° 0.2 mm 12 mps 747 mmHg 85%
    21:00 +21°C° 0.2 mm 12 mps 747 mmHg 85%
    22:00 +19°C° 0.2 mm 12 mps 747 mmHg 85%
    23:00 +19°C° 0.2 mm 12 mps 747 mmHg 84%

    30 October, Monday

    Time Temperature Precipitation Wind Pressure Humidity
    00:00 +19°C° 0.3 mm 12 mps 747 mmHg 84%
    01:00 +19°C° 0.3 mm 12 mps 747 mmHg 84%
    02:00 +19°C° 0.3 mm 12 mps 747 mmHg 84%
    03:00 +19°C° 0.2 mm 12 mps 747 mmHg 84%
    04:00 +19°C° 0.2 mm 12 mps 747 mmHg 84%
    05:00 +19°C° 0.2 mm 13 mps 747 mmHg 84%
    06:00 +21°C° 0.1 mm 12 mps 747 mmHg 84%
    07:00 +21°C° 0.1 mm 12 mps 747 mmHg 84%
    08:00 +21°C° 0.1 mm 12 mps 748 mmHg 84%
    09:00 +20°C° 0.9 mm 13 mps 748 mmHg 84%
    10:00 +20°C° 0.9 mm 13 mps 748 mmHg 84%
    11:00 +20°C° 0.9 mm 13 mps 748 mmHg 85%
    12:00 +20°C° 1 mm 14 mps 748 mmHg 83%
    13:00 +20°C° 1 mm 14 mps 748 mmHg 80%
    14:00 +20°C° 1 mm 14 mps 748 mmHg 78%
    15:00 +19°C° 1.4 mm 14 mps 748 mmHg 80%
    16:00 +19°C° 1.4 mm 13 mps 748 mmHg 81%
    17:00 +18°C° 1.4 mm 12 mps 748 mmHg 83%
    18:00 +18°C° 1.3 mm 12 mps 748 mmHg 80%
    19:00 +17°C° 1.3 mm 11 mps 749 mmHg 76%
    20:00 +17°C° 1.3 mm 11 mps 749 mmHg 73%
    21:00 +17°C° 0.1 mm 11 mps 750 mmHg 67%
    22:00 +16°C° 0.1 mm 11 mps 750 mmHg 60%
    23:00 +15°C° 0.1 mm 12 mps 750 mmHg 54%
    Show more